Regional Weather Roundup
Issued by NWS

Home | Current Version | Previous Version | Graphics & Text | Print | Product List | Glossary On
Versions: 1 2 3 4 5 6 7 8 9 10 11 12 13 14 15 16 17 18 19 20 21 22 23 24 25 26 27 28 29 30 31 32 33 34 35 36 37 38 39 40 41 42 43 44 45 46 47 48 49 50
000
ASUS43 KLSX 300807
RWRMO

WEATHER SUMMARY FOR MISSOURI
NATIONAL WEATHER SERVICE SPRINGFIELD MO
300 AM CDT WED JUL 30 2014

NOTE: "FAIR" INDICATES FEW OR NO CLOUDS BELOW 12,000 FEET WITH NO
       SIGNIFICANT WEATHER AND/OR OBSTRUCTIONS TO VISIBILITY.
       CURRENT SKY AND/OR WEATHER CONDITIONS ARE NOT AVAILABLE FOR
       CHILLICOTHE AND FARMINGTON.

MOZ001>031-035>038-043-044-053-054-300900-
...NORTHERN AND WESTERN MISSOURI...

CITY           SKY/WX    TMP DP  RH WIND       PRES   REMARKS
KANSAS CTY INT PTCLDY    64  59  83 N5        30.10F
KANSAS C DTWN  CLOUDY    70  60  70 N3        30.09F
LEE`S SUMMIT   MOCLDY    64  59  83 CALM      30.10F
ST JOSEPH      PTCLDY    60  58  92 CALM      30.10F
CHILLICOTHE      N/A     59  56  89 CALM      30.11S
KIRKSVILLE     MOCLDY    62  57  83 CALM      30.10F

$$
MOZ066>068-077>081-088>096-101>105-300900-
...SOUTHWEST MISSOURI...

CITY           SKY/WX    TMP DP  RH WIND       PRES   REMARKS
SPRINGFIELD    CLOUDY    71  58  63 CALM      30.08F
JOPLIN         CLOUDY    66  63  90 CALM      30.09S

$$
MOZ032>034-039>042-045>050-055>058-069>072-300900-
...CENTRAL MISSOURI...

CITY           SKY/WX    TMP DP  RH WIND       PRES   REMARKS
COLUMBIA       CLEAR     62  56  80 SE5       30.09F
JEFFERSON CITY CLEAR     60  56  86 CALM      30.08F
ROLLA          PTCLDY    65  53  65 E7        30.08F
SEDALIA        PTCLDY    61  57  87 S5        30.09F
WHITEMAN AFB   CLEAR     59  51  75 SW2       30.08F
OSAGE BEACH    CLEAR     59  55  88 CALM      30.08F

$$
MOZ051-052-059>065-300900-
...EAST CENTRAL MISSOURI...

CITY           SKY/WX    TMP DP  RH WIND       PRES   REMARKS
ST LOUIS INTL  MOCLDY    68  57  68 CALM      30.09S
SPIRIT OF STL  CLOUDY    63  59  87 CALM      30.08S
ST CHARLES     CLEAR     58  55  90 CALM      30.08S

$$
MOZ072>076-082>087-097>100-106>115-300900-
...SOUTH CENTRAL AND SOUTHEAST MISSOURI...

CITY           SKY/WX    TMP DP  RH WIND       PRES   REMARKS
CAPE GIRARDEAU CLEAR     59  57  93 CALM      30.09F
FARMINGTON     CLOUDY    63  55  77 CALM      30.12F
POPLAR BLUFF   CLEAR     60  56  86 CALM      30.08F
WEST PLAINS    CLEAR     61  57  87 CALM      30.11S

$$


USA.gov is the U.S. government's official web portal to all federal, state and local government web resources and services.